Вернуться в каталог

QIANFAN-17

АктивенСвязьPO
NORAD 60395·PAYLOAD·🇨🇳 China

Запущен Aug 6, 2024 с Taiyuan Satellite Launch Center

Loading…

Ближайшие Пролёты (ближайшие 24 часа)

TLE

СвежийSource: Space-Track

Эпоха: Sep 14, 2026, 21:57 UTC

1 60395U 24140S   26257.91470397  .00000021  00000-0  13207-4 0  9996
2 60395  88.9675 270.7959 0016763 123.8657 236.4092 13.51021521105421

Отслеживайте QIANFAN-17 в реальном времени с AllMySat

Download on the App Store